AMX426 MMUN-MUHA

Flight info

Callsign AMX426
Flight time N/A
Altitude 37000
Route NUDAL1A NUDAL UV106 PODON UG765 DCT MUHA
Aircraft B738/M-SDE2E3FGHIRWXY/LB1

Departure

Time N/A
Airport Cancún International Airport (MMUN)

Arrival

Time 2026-05-05 17:36
Airport José Martí International Airport (MUHA)
Time Latitude Longitude Altitude Speed Heading
2026-05-05 17:22 22.64969 -83.15091 6025 ft 278 kts 43°
2026-05-05 17:22 22.66371 -83.13666 5770 ft 274 kts 43°
2026-05-05 17:22 22.67765 -83.12261 5512 ft 272 kts 43°
2026-05-05 17:22 22.69146 -83.10877 5275 ft 269 kts 42°
2026-05-05 17:23 22.70520 -83.09503 5016 ft 270 kts 44°
2026-05-05 17:23 22.71887 -83.08088 4772 ft 271 kts 43°
2026-05-05 17:23 22.73266 -83.06711 4509 ft 269 kts 42°
2026-05-05 17:23 22.74437 -83.05164 4265 ft 265 kts 66°
2026-05-05 17:24 22.75021 -83.03308 4170 ft 256 kts 73°
2026-05-05 17:24 22.75531 -83.01461 4088 ft 256 kts 73°
2026-05-05 17:24 22.76043 -82.99599 4034 ft 260 kts 73°
2026-05-05 17:24 22.76566 -82.97717 4011 ft 262 kts 73°
2026-05-05 17:25 22.77091 -82.95818 4021 ft 264 kts 74°
2026-05-05 17:25 22.77436 -82.94553 4015 ft 264 kts 74°
2026-05-05 17:25 22.78145 -82.92030 4001 ft 265 kts 73°
2026-05-05 17:25 22.78679 -82.90129 3994 ft 264 kts 73°
2026-05-05 17:26 22.79217 -82.88219 3993 ft 264 kts 73°
2026-05-05 17:26 22.79743 -82.86324 3993 ft 262 kts 73°
2026-05-05 17:26 22.80263 -82.84440 3995 ft 260 kts 73°
2026-05-05 17:26 22.80789 -82.82569 3991 ft 260 kts 73°
2026-05-05 17:27 22.81310 -82.80693 4008 ft 259 kts 73°
2026-05-05 17:27 22.81832 -82.78815 4006 ft 260 kts 73°
2026-05-05 17:27 22.82343 -82.76978 3986 ft 248 kts 73°
2026-05-05 17:27 22.82833 -82.75235 3978 ft 236 kts 73°
2026-05-05 17:28 22.83294 -82.73578 3976 ft 223 kts 73°
2026-05-05 17:28 22.83733 -82.72001 3808 ft 213 kts 73°
2026-05-05 17:28 22.84145 -82.70527 3730 ft 197 kts 73°
2026-05-05 17:28 22.84526 -82.69157 3631 ft 183 kts 73°
2026-05-05 17:29 22.84887 -82.67861 3381 ft 178 kts 73°
2026-05-05 17:29 22.85240 -82.66584 3098 ft 176 kts 73°
2026-05-05 17:29 22.85597 -82.65297 3057 ft 180 kts 73°
2026-05-05 17:29 22.85955 -82.64011 3008 ft 177 kts 73°
2026-05-05 17:30 22.86305 -82.62736 3021 ft 175 kts 73°
2026-05-05 17:30 22.86657 -82.61471 3008 ft 176 kts 73°
2026-05-05 17:30 22.87003 -82.60219 3004 ft 176 kts 73°
2026-05-05 17:30 22.87356 -82.58947 2994 ft 176 kts 73°
2026-05-05 17:31 22.87757 -82.57696 2994 ft 175 kts 61°
2026-05-05 17:31 22.88445 -82.56664 3027 ft 161 kts 53°
2026-05-05 17:31 22.89091 -82.55702 2996 ft 155 kts 54°
2026-05-05 17:31 22.89743 -82.54760 2897 ft 158 kts 53°
2026-05-05 17:32 22.90400 -82.53802 2697 ft 158 kts 53°
2026-05-05 17:32 22.91039 -82.52847 2494 ft 155 kts 53°
2026-05-05 17:32 22.91664 -82.51900 2308 ft 154 kts 53°
2026-05-05 17:32 22.92290 -82.50950 2085 ft 154 kts 53°
2026-05-05 17:33 22.92905 -82.50015 1875 ft 151 kts 52°
2026-05-05 17:33 22.93509 -82.49101 1687 ft 150 kts 52°
2026-05-05 17:33 22.94121 -82.48176 1485 ft 149 kts 51°
2026-05-05 17:33 22.94718 -82.47264 1293 ft 147 kts 51°
2026-05-05 17:34 22.95314 -82.46361 1092 ft 148 kts 51°
2026-05-05 17:34 22.95909 -82.45459 889 ft 146 kts 51°
2026-05-05 17:34 22.96504 -82.44547 672 ft 149 kts 52°
2026-05-05 17:34 22.97100 -82.43637 513 ft 148 kts 53°
2026-05-05 17:35 22.97703 -82.42733 339 ft 149 kts 54°
2026-05-05 17:35 22.98314 -82.41811 215 ft 145 kts 54°
2026-05-05 17:35 22.98813 -82.41057 215 ft 101 kts 54°
2026-05-05 17:35 22.99133 -82.40576 214 ft 56 kts 54°
2026-05-05 17:36 22.99296 -82.40329 216 ft 36 kts 54°
2026-05-05 17:36 22.99450 -82.40177 216 ft 25 kts 10°
2026-05-05 17:36 22.99549 -82.40160 216 ft 2 kts
2026-05-05 17:36 22.99550 -82.40160 216 ft 0 kts
2026-05-05 17:47 22.99550 -82.40159 216 ft 0 kts
2026-05-05 17:47 22.99580 -82.40156 224 ft 10 kts 356°
2026-05-05 17:47 22.99583 -82.40222 222 ft 14 kts 235°
2026-05-05 17:47 22.99507 -82.40335 220 ft 20 kts 233°
2026-05-05 17:48 22.99537 -82.40447 220 ft 18 kts 323°
2026-05-05 17:48 22.99640 -82.40519 218 ft 18 kts 330°
2026-05-05 17:48 22.99676 -82.40587 217 ft 8 kts 256°
2026-05-05 17:48 22.99669 -82.40614 216 ft 0 kts 255°